When you browse on this site, cookies collect data to enhance your experience and personalize the content and advertising you see.
Visit our Privacy Policy to learn more. By continuing to use the site, you agree to this use of cookies and data.
EN

Hourly Weather Krzewo

Today, 28 September, Monday

Time Temperature Precipitation Wind Pressure Humidity
00:00 +9°C° 0 mm 2 mps 749 mmHg 85%
01:00 +8°C° 0 mm 2 mps 749 mmHg 86%
02:00 +8°C° 0 mm 2 mps 749 mmHg 86%
03:00 +8°C° 0 mm 2 mps 749 mmHg 86%
04:00 +8°C° 0 mm 2 mps 749 mmHg 86%
05:00 +8°C° 0 mm 3 mps 750 mmHg 84%
06:00 +8°C° 0 mm 3 mps 750 mmHg 82%
07:00 +9°C° 0 mm 3 mps 751 mmHg 79%
08:00 +10°C° 0 mm 3 mps 751 mmHg 73%
09:00 +12°C° 0 mm 3 mps 751 mmHg 67%
10:00 +14°C° 0 mm 3 mps 751 mmHg 62%
11:00 +14°C° 0 mm 3 mps 751 mmHg 60%
12:00 +16°C° 0 mm 3 mps 750 mmHg 58%
13:00 +15°C° 0 mm 4 mps 750 mmHg 57%
14:00 +15°C° 0 mm 4 mps 750 mmHg 61%
15:00 +14°C° 0 mm 4 mps 750 mmHg 65%
16:00 +14°C° 0 mm 3 mps 750 mmHg 70%
17:00 +13°C° 0 mm 3 mps 750 mmHg 70%
18:00 +13°C° 0 mm 3 mps 750 mmHg 70%
19:00 +13°C° 0 mm 3 mps 750 mmHg 70%
20:00 +13°C° 0 mm 3 mps 750 mmHg 72%
21:00 +13°C° 0 mm 3 mps 750 mmHg 74%
22:00 +13°C° 0 mm 3 mps 750 mmHg 76%
23:00 +12°C° 0 mm 3 mps 750 mmHg 78%

Tomorrow, 29 September, Tuesday

Time Temperature Precipitation Wind Pressure Humidity
00:00 +12°C° 0 mm 3 mps 750 mmHg 81%
01:00 +12°C° 0 mm 3 mps 750 mmHg 83%
02:00 +12°C° 0 mm 3 mps 749 mmHg 84%
03:00 +12°C° 0 mm 3 mps 749 mmHg 86%
04:00 +11°C° 0 mm 3 mps 749 mmHg 87%
05:00 +11°C° 0 mm 3 mps 749 mmHg 86%
06:00 +11°C° 0 mm 3 mps 749 mmHg 85%
07:00 +11°C° 0 mm 3 mps 750 mmHg 84%
08:00 +12°C° 0 mm 3 mps 750 mmHg 80%
09:00 +13°C° 0 mm 3 mps 750 mmHg 77%
10:00 +14°C° 0 mm 3 mps 750 mmHg 73%
11:00 +16°C° 0 mm 3 mps 750 mmHg 70%
12:00 +17°C° 0 mm 3 mps 750 mmHg 66%
13:00 +18°C° 0 mm 3 mps 750 mmHg 63%
14:00 +18°C° 0 mm 3 mps 750 mmHg 66%
15:00 +17°C° 0 mm 3 mps 750 mmHg 69%
16:00 +17°C° 0 mm 3 mps 750 mmHg 72%
17:00 +16°C° 0 mm 3 mps 750 mmHg 77%
18:00 +14°C° 0 mm 3 mps 750 mmHg 82%
19:00 +13°C° 0 mm 3 mps 751 mmHg 87%
20:00 +13°C° 0 mm 2 mps 751 mmHg 88%
21:00 +13°C° 0 mm 2 mps 751 mmHg 90%
22:00 +13°C° 0 mm 2 mps 751 mmHg 91%
23:00 +13°C° 0 mm 2 mps 751 mmHg 92%

Day after tomorrow, 30 September, Wednesday

Time Temperature Precipitation Wind Pressure Humidity
00:00 +12°C° 0 mm 2 mps 751 mmHg 93%
01:00 +12°C° 0 mm 2 mps 751 mmHg 94%
02:00 +12°C° 0 mm 2 mps 751 mmHg 93%
03:00 +12°C° 0 mm 2 mps 750 mmHg 93%
04:00 +10°C° 0 mm 2 mps 750 mmHg 92%
05:00 +11°C° 0 mm 3 mps 750 mmHg 90%
06:00 +11°C° 0 mm 3 mps 750 mmHg 88%
07:00 +11°C° 0 mm 3 mps 750 mmHg 86%
08:00 +12°C° 0 mm 3 mps 750 mmHg 80%
09:00 +13°C° 0 mm 3 mps 750 mmHg 75%
10:00 +16°C° 0 mm 3 mps 750 mmHg 70%
11:00 +15°C° 0 mm 4 mps 750 mmHg 68%
12:00 +17°C° 0 mm 4 mps 749 mmHg 67%
13:00 +17°C° 0 mm 5 mps 749 mmHg 65%
14:00 +18°C° 0 mm 4 mps 749 mmHg 68%
15:00 +17°C° 0 mm 4 mps 748 mmHg 70%
16:00 +17°C° 0 mm 4 mps 748 mmHg 73%
17:00 +17°C° 0.1 mm 4 mps 748 mmHg 75%
18:00 +16°C° 0.1 mm 3 mps 749 mmHg 77%
19:00 +16°C° 0.1 mm 3 mps 749 mmHg 79%
20:00 +14°C° 0 mm 3 mps 749 mmHg 80%
21:00 +14°C° 0 mm 3 mps 748 mmHg 81%
22:00 +14°C° 0 mm 3 mps 748 mmHg 82%
23:00 +13°C° 0 mm 3 mps 748 mmHg 84%

1 October, Thursday

Time Temperature Precipitation Wind Pressure Humidity
00:00 +12°C° 0 mm 3 mps 748 mmHg 87%
01:00 +12°C° 0 mm 3 mps 747 mmHg 90%
02:00 +11°C° 0 mm 3 mps 747 mmHg 91%
03:00 +11°C° 0 mm 3 mps 747 mmHg 92%
04:00 +10°C° 0 mm 3 mps 747 mmHg 93%
05:00 +10°C° 0 mm 3 mps 746 mmHg 91%
06:00 +10°C° 0 mm 3 mps 746 mmHg 90%
07:00 +11°C° 0 mm 3 mps 746 mmHg 88%
08:00 +12°C° 0 mm 3 mps 746 mmHg 81%
09:00 +13°C° 0 mm 3 mps 746 mmHg 73%
10:00 +16°C° 0 mm 3 mps 746 mmHg 66%
11:00 +16°C° 0 mm 3 mps 745 mmHg 64%
12:00 +17°C° 0 mm 3 mps 745 mmHg 62%
13:00 +18°C° 0 mm 4 mps 745 mmHg 60%
14:00 +17°C° 0 mm 4 mps 745 mmHg 63%
15:00 +15°C° 0 mm 4 mps 745 mmHg 67%
16:00 +14°C° 0 mm 4 mps 745 mmHg 71%
17:00 +14°C° 0 mm 3 mps 745 mmHg 75%
18:00 +13°C° 0 mm 3 mps 745 mmHg 79%
19:00 +13°C° 0 mm 2 mps 745 mmHg 83%
20:00 +13°C° 0 mm 2 mps 745 mmHg 85%
21:00 +13°C° 0 mm 2 mps 745 mmHg 87%
22:00 +12°C° 0 mm 2 mps 745 mmHg 89%
23:00 +12°C° 0 mm 2 mps 745 mmHg 91%

2 October, Friday

Time Temperature Precipitation Wind Pressure Humidity
00:00 +12°C° 0 mm 2 mps 745 mmHg 92%
01:00 +12°C° 0 mm 2 mps 745 mmHg 94%
02:00 +12°C° 0 mm 2 mps 745 mmHg 94%
03:00 +12°C° 0 mm 2 mps 745 mmHg 94%
04:00 +12°C° 0 mm 2 mps 745 mmHg 94%
05:00 +11°C° 0 mm 3 mps 745 mmHg 93%
06:00 +11°C° 0 mm 3 mps 745 mmHg 92%
07:00 +11°C° 0 mm 4 mps 745 mmHg 90%
08:00 +12°C° 0 mm 4 mps 745 mmHg 87%
09:00 +13°C° 0 mm 4 mps 745 mmHg 83%
10:00 +14°C° 0 mm 4 mps 745 mmHg 80%
11:00 +15°C° 0 mm 4 mps 745 mmHg 76%
12:00 +16°C° 0 mm 5 mps 745 mmHg 72%
13:00 +17°C° 0 mm 5 mps 745 mmHg 69%
14:00 +18°C° 0.1 mm 4 mps 745 mmHg 69%
15:00 +18°C° 0.1 mm 4 mps 745 mmHg 70%
16:00 +17°C° 0.1 mm 4 mps 745 mmHg 71%
17:00 +17°C° 0 mm 4 mps 745 mmHg 75%
18:00 +15°C° 0 mm 4 mps 745 mmHg 79%
19:00 +14°C° 0 mm 4 mps 746 mmHg 83%
20:00 +13°C° 0 mm 5 mps 746 mmHg 85%
21:00 +13°C° 0 mm 5 mps 746 mmHg 87%
22:00 +13°C° 0 mm 5 mps 746 mmHg 88%
23:00 +13°C° 0 mm 5 mps 745 mmHg 89%

3 October, Saturday

Time Temperature Precipitation Wind Pressure Humidity
00:00 +12°C° 0 mm 5 mps 745 mmHg 90%
01:00 +12°C° 0 mm 5 mps 745 mmHg 91%
02:00 +12°C° 0.1 mm 4 mps 745 mmHg 92%
03:00 +12°C° 0.1 mm 4 mps 744 mmHg 92%
04:00 +12°C° 0.1 mm 4 mps 744 mmHg 93%
05:00 +12°C° 0.1 mm 5 mps 744 mmHg 92%
06:00 +13°C° 0.1 mm 5 mps 744 mmHg 92%
07:00 +13°C° 0.1 mm 6 mps 744 mmHg 91%
08:00 +14°C° 0 mm 6 mps 743 mmHg 89%
09:00 +14°C° 0 mm 6 mps 743 mmHg 86%
10:00 +15°C° 0 mm 6 mps 743 mmHg 84%
11:00 +16°C° 0 mm 6 mps 743 mmHg 80%
12:00 +17°C° 0 mm 6 mps 743 mmHg 76%
13:00 +19°C° 0 mm 6 mps 743 mmHg 72%
14:00 +19°C° 0 mm 5 mps 743 mmHg 73%
15:00 +19°C° 0 mm 5 mps 743 mmHg 75%
16:00 +17°C° 0 mm 5 mps 743 mmHg 76%
17:00 +17°C° 0 mm 5 mps 743 mmHg 77%
18:00 +17°C° 0 mm 5 mps 743 mmHg 78%
19:00 +17°C° 0 mm 6 mps 743 mmHg 79%
20:00 +17°C° 0 mm 6 mps 742 mmHg 78%
21:00 +16°C° 0 mm 6 mps 742 mmHg 78%
22:00 +16°C° 0 mm 6 mps 742 mmHg 78%
23:00 +16°C° 0 mm 5 mps 742 mmHg 78%
Show more